• In Germany
  • List of Countries
  • For 7 days
  • Water Temperature
  • Satellite Maps
  • Weather Map
  • Weather Widgets
  • user-avatar
    Login

    Hourly Weather New Brighton

    Today, 26 September, Tuesday

    Time Temperature Precipitation Wind Pressure Humidity
    00:00 +15°C° 0.9 mm 2 mps 735 mmHg 93%
    01:00 +15°C° 0.7 mm 2 mps 734 mmHg 94%
    02:00 +15°C° 0.7 mm 1 mps 734 mmHg 94%
    03:00 +15°C° 0.7 mm 1 mps 734 mmHg 94%
    04:00 +15°C° 0.5 mm 2 mps 734 mmHg 94%
    05:00 +15°C° 0.5 mm 2 mps 734 mmHg 93%
    06:00 +14°C° 0.5 mm 2 mps 734 mmHg 93%
    07:00 +14°C° 0 mm 3 mps 735 mmHg 91%
    08:00 +14°C° 0 mm 4 mps 735 mmHg 89%
    09:00 +14°C° 0 mm 4 mps 735 mmHg 87%
    10:00 +14°C° 0 mm 4 mps 736 mmHg 83%
    11:00 +15°C° 0 mm 4 mps 736 mmHg 80%
    12:00 +15°C° 0 mm 5 mps 736 mmHg 77%
    13:00 +16°C° 0 mm 5 mps 736 mmHg 75%
    14:00 +16°C° 0 mm 5 mps 736 mmHg 73%
    15:00 +16°C° 0 mm 5 mps 737 mmHg 71%
    16:00 +15°C° 0 mm 5 mps 737 mmHg 72%
    17:00 +14°C° 0 mm 5 mps 737 mmHg 73%
    18:00 +14°C° 0 mm 4 mps 737 mmHg 74%
    19:00 +13°C° 0 mm 4 mps 738 mmHg 75%
    20:00 +13°C° 0 mm 4 mps 738 mmHg 76%
    21:00 +12°C° 0 mm 4 mps 739 mmHg 77%
    22:00 +12°C° 0 mm 4 mps 739 mmHg 79%
    23:00 +11°C° 0 mm 3 mps 739 mmHg 82%

    Tomorrow, 27 September, Wednesday

    Time Temperature Precipitation Wind Pressure Humidity
    00:00 +10°C° 0 mm 3 mps 739 mmHg 84%
    01:00 +10°C° 0 mm 3 mps 739 mmHg 86%
    02:00 +9°C° 0 mm 3 mps 740 mmHg 88%
    03:00 +9°C° 0 mm 3 mps 740 mmHg 90%
    04:00 +8°C° 0 mm 3 mps 740 mmHg 90%
    05:00 +8°C° 0 mm 2 mps 740 mmHg 90%
    06:00 +8°C° 0 mm 2 mps 741 mmHg 90%
    07:00 +9°C° 0 mm 3 mps 741 mmHg 82%
    08:00 +11°C° 0 mm 3 mps 741 mmHg 75%
    09:00 +12°C° 0 mm 3 mps 741 mmHg 68%
    10:00 +14°C° 0 mm 3 mps 741 mmHg 63%
    11:00 +16°C° 0 mm 3 mps 741 mmHg 58%
    12:00 +18°C° 0 mm 3 mps 741 mmHg 53%
    13:00 +18°C° 0 mm 3 mps 741 mmHg 53%
    14:00 +19°C° 0 mm 4 mps 741 mmHg 53%
    15:00 +19°C° 0 mm 4 mps 740 mmHg 52%
    16:00 +18°C° 0 mm 3 mps 740 mmHg 58%
    17:00 +17°C° 0 mm 2 mps 740 mmHg 63%
    18:00 +16°C° 0 mm 1 mps 740 mmHg 68%
    19:00 +15°C° 0 mm 1 mps 740 mmHg 70%
    20:00 +14°C° 0 mm 1 mps 740 mmHg 72%
    21:00 +14°C° 0 mm 1 mps 741 mmHg 74%
    22:00 +13°C° 0 mm 1 mps 741 mmHg 74%
    23:00 +13°C° 0 mm 2 mps 740 mmHg 75%

    Day after tomorrow, 28 September, Thursday

    Time Temperature Precipitation Wind Pressure Humidity
    00:00 +13°C° 0 mm 2 mps 740 mmHg 75%
    01:00 +13°C° 0 mm 2 mps 740 mmHg 75%
    02:00 +12°C° 0 mm 2 mps 740 mmHg 74%
    03:00 +12°C° 0 mm 2 mps 740 mmHg 74%
    04:00 +12°C° 0 mm 2 mps 740 mmHg 74%
    05:00 +12°C° 0 mm 2 mps 740 mmHg 75%
    06:00 +10°C° 0 mm 2 mps 740 mmHg 75%
    07:00 +13°C° 0 mm 2 mps 740 mmHg 70%
    08:00 +15°C° 0 mm 2 mps 741 mmHg 66%
    09:00 +16°C° 0 mm 2 mps 741 mmHg 61%
    10:00 +18°C° 0 mm 2 mps 741 mmHg 57%
    11:00 +19°C° 0 mm 2 mps 741 mmHg 54%
    12:00 +21°C° 0 mm 2 mps 740 mmHg 51%
    13:00 +21°C° 0 mm 2 mps 740 mmHg 50%
    14:00 +22°C° 0 mm 3 mps 740 mmHg 50%
    15:00 +22°C° 0 mm 4 mps 740 mmHg 50%
    16:00 +20°C° 0 mm 3 mps 740 mmHg 55%
    17:00 +19°C° 0 mm 3 mps 740 mmHg 60%
    18:00 +17°C° 0 mm 3 mps 740 mmHg 65%
    19:00 +16°C° 0 mm 3 mps 740 mmHg 67%
    20:00 +14°C° 0 mm 3 mps 741 mmHg 69%
    21:00 +13°C° 0 mm 3 mps 741 mmHg 71%
    22:00 +13°C° 0 mm 3 mps 741 mmHg 73%
    23:00 +12°C° 0 mm 3 mps 741 mmHg 76%

    29 September, Friday

    Time Temperature Precipitation Wind Pressure Humidity
    00:00 +11°C° 0 mm 3 mps 742 mmHg 78%
    01:00 +11°C° 0 mm 3 mps 742 mmHg 78%
    02:00 +10°C° 0 mm 3 mps 742 mmHg 79%
    03:00 +9°C° 0 mm 3 mps 742 mmHg 79%
    04:00 +9°C° 0 mm 2 mps 743 mmHg 80%
    05:00 +8°C° 0 mm 2 mps 743 mmHg 82%
    06:00 +8°C° 0 mm 2 mps 744 mmHg 83%
    07:00 +9°C° 0 mm 3 mps 744 mmHg 77%
    08:00 +11°C° 0 mm 3 mps 745 mmHg 71%
    09:00 +12°C° 0 mm 3 mps 745 mmHg 65%
    10:00 +14°C° 0 mm 3 mps 745 mmHg 59%
    11:00 +16°C° 0 mm 2 mps 745 mmHg 53%
    12:00 +17°C° 0 mm 2 mps 745 mmHg 48%
    13:00 +18°C° 0 mm 2 mps 744 mmHg 46%
    14:00 +18°C° 0 mm 2 mps 744 mmHg 45%
    15:00 +19°C° 0 mm 2 mps 744 mmHg 44%
    16:00 +18°C° 0 mm 1 mps 744 mmHg 49%
    17:00 +16°C° 0 mm 1 mps 744 mmHg 55%
    18:00 +14°C° 0 mm 1 mps 744 mmHg 60%
    19:00 +13°C° 0 mm 1 mps 744 mmHg 63%
    20:00 +13°C° 0 mm 1 mps 744 mmHg 66%
    21:00 +12°C° 0 mm 2 mps 744 mmHg 69%
    22:00 +12°C° 0 mm 2 mps 744 mmHg 72%
    23:00 +10°C° 0 mm 2 mps 744 mmHg 75%

    30 September, Saturday

    Time Temperature Precipitation Wind Pressure Humidity
    00:00 +10°C° 0 mm 2 mps 744 mmHg 77%
    01:00 +9°C° 0 mm 2 mps 744 mmHg 79%
    02:00 +9°C° 0 mm 2 mps 744 mmHg 81%
    03:00 +9°C° 0 mm 2 mps 744 mmHg 84%
    04:00 +8°C° 0 mm 2 mps 744 mmHg 85%
    05:00 +8°C° 0 mm 3 mps 744 mmHg 86%
    06:00 +8°C° 0 mm 3 mps 744 mmHg 87%
    07:00 +10°C° 0 mm 4 mps 744 mmHg 81%
    08:00 +11°C° 0 mm 4 mps 744 mmHg 74%
    09:00 +13°C° 0 mm 5 mps 743 mmHg 68%
    10:00 +14°C° 0 mm 5 mps 743 mmHg 64%
    11:00 +15°C° 0 mm 5 mps 743 mmHg 60%
    12:00 +17°C° 0 mm 5 mps 742 mmHg 56%
    13:00 +17°C° 0 mm 5 mps 741 mmHg 57%
    14:00 +17°C° 0 mm 5 mps 741 mmHg 57%
    15:00 +18°C° 0 mm 4 mps 740 mmHg 57%
    16:00 +18°C° 0 mm 4 mps 740 mmHg 58%
    17:00 +17°C° 0 mm 4 mps 739 mmHg 58%
    18:00 +17°C° 0 mm 4 mps 739 mmHg 58%
    19:00 +16°C° 0.2 mm 5 mps 739 mmHg 61%
    20:00 +16°C° 0.2 mm 5 mps 739 mmHg 63%
    21:00 +15°C° 0.2 mm 5 mps 738 mmHg 65%
    22:00 +15°C° 0.3 mm 5 mps 738 mmHg 67%
    23:00 +15°C° 0.3 mm 5 mps 738 mmHg 68%

    1 October, Sunday

    Time Temperature Precipitation Wind Pressure Humidity
    00:00 +15°C° 0.3 mm 5 mps 737 mmHg 70%
    01:00 +15°C° 0.1 mm 5 mps 737 mmHg 68%
    02:00 +15°C° 0.1 mm 6 mps 737 mmHg 66%
    03:00 +15°C° 0.1 mm 6 mps 737 mmHg 64%
    04:00 +15°C° 0 mm 6 mps 737 mmHg 60%
    05:00 +15°C° 0 mm 6 mps 737 mmHg 57%
    06:00 +16°C° 0 mm 6 mps 736 mmHg 53%
    07:00 +16°C° 0 mm 6 mps 736 mmHg 53%
    08:00 +16°C° 0 mm 6 mps 736 mmHg 53%
    09:00 +16°C° 0 mm 6 mps 737 mmHg 53%
    10:00 +17°C° 0 mm 6 mps 736 mmHg 54%
    11:00 +19°C° 0 mm 6 mps 736 mmHg 55%
    12:00 +20°C° 0 mm 7 mps 736 mmHg 56%
    13:00 +21°C° 0 mm 7 mps 736 mmHg 55%
    14:00 +22°C° 0 mm 6 mps 735 mmHg 55%
    15:00 +23°C° 0 mm 6 mps 735 mmHg 54%
    16:00 +22°C° 0 mm 6 mps 735 mmHg 56%
    17:00 +21°C° 0 mm 6 mps 735 mmHg 57%
    18:00 +21°C° 0 mm 6 mps 735 mmHg 59%
    19:00 +20°C° 0.1 mm 6 mps 735 mmHg 58%
    20:00 +19°C° 0.1 mm 6 mps 735 mmHg 58%
    21:00 +19°C° 0.1 mm 6 mps 736 mmHg 57%
    22:00 +17°C° 0.2 mm 6 mps 736 mmHg 57%
    23:00 +17°C° 0.2 mm 5 mps 736 mmHg 57%
    Show more